CZ-3C DEB, 40196

Orbit data source: Space-Track

CZ-3C DEB, 40196 is space debris in HEO originally from a launch on Fri, 24 Feb 2012 UTC launched from the Xichang Space Center, China (XSC). Debris objects in space refer to the collection of defunct objects orbiting the Earth. Examples of debris include non-operational satellites, rocket bodies, and fragments generated from explosions, collisions, or faulty payload assembly.

Loading next visibility...
Identifier
40196, 2012-008F
Orbit
HEO
Country
Flag of CNCN / PRC
Related business
Manufacturer
CALT
Mission
Spacecraft
Bus & Motor
Unknown
Mass
Unknown
Launch date (UTC)
2012-02-24 (14 years ago)
Launch vehicle
Unknown
Launch site
Xichang Space Center, China (XSC)
Object type
Payload
Rocket body
Debris
Shape & HBR
Unknown shape, 0.2 m
Radar Cross Section
Medium (>0.1 m² and <1 m²)

Expand to show TLE details & history
Last TLE update: 1 day ago

TLE from 1 day ago
0 CZ-3C DEB
1 40196U 12008F   26235.03126390 -.00000194  00000-0 -40369-4 0  9995
2 40196  21.3652 189.1812 7061178 139.0268 304.2652  2.38486572110706
Epoch: 2026-08-23T00:45Z
TLE epoch observation values (Epoch: 2026-08-23T00:45:01.200Z)
Latitude
-0.00002°
Longitude
-153.48195°
Altitude
19,021.549 km
Speed
3.813 km/s
True Right ascension
12h 36m 25s
True Declination
0° 00' 00"
Sunlit
Object was in daylight at epoch
Visualization orbit readout
Latitude
Unknown
Longitude
Unknown
Altitude
Unknown
Speed
Unknown
Apparent Right ascension
Unknown
Apparent Declination
Unknown
Sunlit
N/A
Visualization observer readout
Local Sidereal Time
23:04:02
Azimuth
Unknown
Elevation
Unknown
Doppler factor
Unknown
Orbital elements
Apogee altitude
34,003.032 km
Perigee altitude
577.6 km
Semi-major axis
23,668.453 km
Eccentricity
0.70612
Inclination
21.3652°
RAAN
189.1812°
Arg. of periapsis
139.0268°
True anomaly
220.9991°
Mean anomaly
304.2652°
Eccentric anomaly
264.02725°
Mean motion
0.59606 °/min
Orbital period
603.97 mins
BSTAR
-0.000040369
Loading maneuver chart data...
Computing Atmospheric mass density...
Loading historical data...
Loading historical data...
Loading historical data...
Loading historical data...
Loading historical data...
Loading historical data...
Loading historical data...

Documentation

Showing up to 5 results
|